Location: Montbazon
(47.2835°N, 0.6999°E)
Time: 05:01:01
(UTC+00:00)

Cosmos 1980 - Pass Details

Date: 08 November 2025
Orbit: 836 x 847 km, 71.0° (Epoch: 10 December)

Event Time Altitude Azimuth Distance (km) Brightness Sun altitude
Rises 04:58:16 0° 193° (SSW) 3,376 6.7 -19.3°
Reaches altitude 10° 05:00:43 10° 190° (S) 2,447 6.0 -18.9°
Maximum altitude 05:06:14 61° 112° (ESE) 955 4.2 -18.0°
Drops below altitude 10° 05:11:48 10° 33° (NNE) 2,471 6.5 -17.0°
Sets 05:14:17 0° 30° (NNE) 3,412 7.2 -16.6°
